User: anonymous   Login
Location: Haulchin
(50.3172°N, 3.4360°E)
Time: 06:56:48
(UTC+00:00)
Language:

Cosmos 2082 Rocket - Orbit

View from above orbital plane
View from above orbital plane
View from above satellite
View from above satellite

Ground track
Ground track

The orbit data is extracted from the following two-line orbital elements,

1 20625U 90046B   24203.87961265 -.00000144  00000-0 -50086-4 0  9993
2 20625  70.9997 109.0811 0012486 137.1310 223.0788 14.14847827764110
Epoch (UTC): 21 July 2024 21:06:38
Eccentricity: 0.0012486
inclination: 70.9997°
perigee height: 834 km
apogee height: 852 km
right ascension of ascending node: 109.0811°
argument of perigee: 137.1310°
revolutions per day: 14.14847827
mean anomaly at epoch: 223.0788°
orbit number at epoch: 76411

The dashed part of the orbit path shows where the satellite is in the earth's shadow,  

DLR